Weather History for Martinsburg, WV

Change the Weather History Date:

Thursday, April 25, 2013

  Actual Average Record
Temperature  
Mean Temperature 53 °F 55 °F  
Max Temperature 63 °F 67 °F 92 °F (2009)
Min Temperature 43 °F 44 °F 25 °F (1956)
Degree Days  
Heating Degree Days 12 10  
Month to date heating degree days 274 339  
Since 1 July heating degree days 4687 5009  
Cooling Degree Days 0 0  
Month to date cooling degree days 31 0  
Year to date cooling degree days 31 1  
Growing Degree Days 2 (Base 50)    
Moisture  
Dew Point 29 °F    
Average Humidity 43    
Maximum Humidity 62    
Minimum Humidity 23    
Precipitation  
Precipitation 0.00 in 0.12 in 2.13 in (2010)
Month to date precipitation 1.76 2.77  
Year to date precipitation 8.80 11.07  
Sea Level Pressure  
Sea Level Pressure 30.24 in    
Wind  
Wind Speed 6 mph (WNW)    
Max Wind Speed 25 mph    
Max Gust Speed 31 mph    
Visibility 8 miles    
Events      
T = Trace of Precipitation, MM = Missing Value Source: NWS Daily Summary

Daily Weather History Graph

Daily Weather History Graph

Search for Another Location

Airport:

Trip Planner

Search our weather history database for the weather conditions in past years. The results will help you decide how hot, cold, wet, or windy it might be!

Date:

Astronomy

Apr. 25, 2013 Rise Set
Actual Time 6:20 AM EDT 7:59 PM EDT
Civil Twilight 5:52 AM EDT 8:28 PM EDT
Nautical Twilight 5:17 AM EDT 9:02 PM EDT
Astronomical Twilight 4:40 AM EDT 9:39 PM EDT
Moon 8:10 PM EDT (4/25) 6:02 AM EDT (4/25)
Length of Visible Light 14h 36m
Length of Day
13h 39m
Full, 100% of the Moon is Illuminated
Apr 25
Full
Apr 25
Full
May 2
Last Quarter
May 9
New
May 18
First Quarter

Hourly Weather History & Observations

Time (EDT) Temp. Windchill Dew Point Humidity Pressure Visibility Wind Dir Wind Speed Gust Speed Precip Events Conditions
12:53 AM 51.1 °F - 33.1 °F 50% 30.11 in 10.0 mi WNW 18.4 mph 23.0 mph N/A   Mostly Cloudy
1:53 AM 48.0 °F - 32.0 °F 54% 30.11 in 10.0 mi WNW 21.9 mph 31.1 mph N/A   Partly Cloudy
2:53 AM 45.0 °F 38.2 °F 30.9 °F 58% 30.14 in 10.0 mi NW 15.0 mph 24.2 mph N/A   Clear
3:53 AM 44.1 °F 38.6 °F 30.9 °F 60% 30.16 in 10.0 mi WNW 10.4 mph - N/A   Clear
4:53 AM 44.1 °F 37.4 °F 28.9 °F 55% 30.19 in 10.0 mi NW 13.8 mph - N/A   Clear
5:53 AM 43.0 °F 36.0 °F 30.0 °F 60% 30.22 in 10.0 mi NW 13.8 mph - N/A   Clear
6:53 AM 44.1 °F - 28.9 °F 55% 30.25 in 10.0 mi Calm Calm - N/A   Scattered Clouds
7:53 AM 45.0 °F 41.2 °F 28.9 °F 53% 30.27 in 10.0 mi NW 6.9 mph - N/A   Clear
8:53 AM 46.9 °F - 28.9 °F 50% 30.29 in 10.0 mi NW 8.1 mph - N/A   Partly Cloudy
9:53 AM 48.9 °F - 28.0 °F 44% 30.29 in 10.0 mi NW 9.2 mph - N/A   Clear
10:51 AM 51.8 °F - 28.4 °F 41% 30.29 in 2.0 mi West 8.1 mph - N/A   Haze
10:53 AM 51.1 °F - 28.9 °F 43% 30.29 in 2.0 mi WSW 8.1 mph - N/A   Haze
11:30 AM 51.8 °F - 28.4 °F 41% 30.28 in 3.0 mi NNW 4.6 mph - N/A   Haze
11:33 AM 53.6 °F - 28.4 °F 38% 30.28 in 1.2 mi Variable 3.5 mph - N/A   Haze
11:49 AM 53.6 °F - 28.4 °F 38% 30.27 in 3.0 mi WNW 6.9 mph - N/A   Haze
11:53 AM 53.1 °F - 28.0 °F 38% 30.28 in 2.5 mi Calm Calm - N/A   Haze
12:04 PM 53.6 °F - 28.4 °F 38% 30.28 in 10.0 mi WSW 4.6 mph - N/A   Clear
12:53 PM 54.0 °F - 26.1 °F 34% 30.27 in 10.0 mi ESE 3.5 mph - N/A   Clear
1:53 PM 57.0 °F - 28.9 °F 34% 30.25 in 10.0 mi WSW 4.6 mph 16.1 mph N/A   Clear
2:53 PM 59.0 °F - 28.0 °F 31% 30.23 in 10.0 mi Variable 3.5 mph - N/A   Clear
3:53 PM 62.1 °F - 24.1 °F 23% 30.21 in 10.0 mi WSW 5.8 mph - N/A   Clear
4:53 PM 62.1 °F - 28.0 °F 28% 30.19 in 10.0 mi Variable 4.6 mph - N/A   Clear
5:53 PM 62.1 °F - 28.0 °F 28% 30.19 in 10.0 mi South 3.5 mph - N/A   Clear
6:53 PM 62.1 °F - 28.9 °F 29% 30.19 in 10.0 mi SE 5.8 mph - N/A   Clear
7:53 PM 55.0 °F - 36.0 °F 49% 30.21 in 10.0 mi Calm Calm - N/A   Clear
8:53 PM 54.0 °F - 32.0 °F 43% 30.25 in 10.0 mi West 6.9 mph - N/A   Clear
9:53 PM 57.0 °F - 24.1 °F 28% 30.29 in 10.0 mi NW 3.5 mph - N/A   Clear
10:53 PM 48.0 °F - 28.9 °F 48% 30.31 in 10.0 mi Calm Calm - N/A   Partly Cloudy
11:53 PM 46.9 °F - 32.0 °F 56% 30.32 in 10.0 mi Calm Calm - N/A   Scattered Clouds